Regional Weather Roundup
Issued by NWS

Home | Current Version | Previous Version | Graphics & Text | Print | Product List | Glossary On
Versions: 1 2 3 4 5 6 7 8 9 10 11 12 13 14 15 16 17 18 19 20 21 22 23 24 25 26 27 28 29 30 31 32 33 34 35 36 37 38 39 40 41 42 43 44 45 46 47 48 49 50
000
ASUS43 KIND 191309
RWRIN

WEATHER ROUNDUP FOR INDIANA
NATIONAL WEATHER SERVICE INDIANAPOLIS IN
900 AM EDT SAT AUG 19 2017

NOTE: "FAIR" INDICATES FEW OR NO CLOUDS BELOW 12,000 FEET WITH NO
SIGNIFICANT WEATHER AND/OR OBSTRUCTIONS TO VISIBILITY.

* - STATION DOES NOT REPORT WEATHER SUCH AS PRECIPITATION OR FOG.

+ - STATION NOT QUALITY CONTROLLED BY THE NATIONAL WEATHER SERVICE.
    USE DATA WITH CAUTION...ESPECIALLY DEWPOINT AND RELATIVE
    HUMIDITY OBSERVATIONS.

INZ001>003-010>013-019-020-191400-
NORTHWEST INDIANA

CITY           SKY/WX    TMP DP  RH WIND       PRES   REMARKS
GARY /AIRPORT/ MOSUNNY   68  63  83 W7        29.96R
KNOX *+        SUNNY     64  63  94 NW3       29.95R
LA PORTE +     SUNNY     68  64  88 NW6       29.96R
MICHIGAN CITY+ PTSUNNY   68  66  94 CALM      29.96R
MONTICELLO +   SUNNY     67  66  95 NW3       29.95R
RENSSELAER +   SUNNY     66  63  88 CALM      29.96R
VALPARAISO     SUNNY     70  66  87 W5        29.96R

$$

LMZ046-743>745-191400-
SOUTHERN LAKE MICHIGAN

STATION/POSITION TIME  TEMP    WIND        PRES    WAVE
                       AIR SEA DIR/SP/G            HT
                 (UTC) (F)     (DEG/KT/KT) (MB)    (FT)
BURNS HARBOR     1240   71     330/  6/  8 1014.9R
MICHIGAN CITY    1240   70     340/ 10/ 11   N/A
5NW MICH CITY    1300   71 74  350/ 10/ 12   N/A     3

$$

INZ004-005-014>016-021>024-191400-
NORTH CENTRAL INDIANA

CITY           SKY/WX    TMP DP  RH WIND       PRES   REMARKS
ELKHART        SUNNY     68  63  83 NW3       29.94R
GOSHEN         SUNNY     67  63  87 NW6       29.93S
LOGANSPORT +   SUNNY     66  64  94 CALM      29.95R
PERU/GRISSOM   SUNNY     68  68  99 NW5       29.94R
ROCHESTER +    SUNNY     70  64  83 NW6       29.95R
SOUTH BEND     SUNNY     69  65  86 NW7       29.95R
WARSAW +       SUNNY     64  64 100 W3        29.94R

$$

INZ006>009-017-018-025>027-191400-
NORTHEAST INDIANA

CITY           SKY/WX    TMP DP  RH WIND       PRES   REMARKS
AUBURN +       SUNNY     64  63  94 W7        29.93S
FORT WAYNE     MOSUNNY   69  64  84 W5        29.93S
HUNTINGTON +   SUNNY     67  66  94 CALM      29.94R
KENDALLVILLE + MOSUNNY   65  65 100 W3        29.94R FOG

$$

INZ028-029-035-036-043>045-051>053-191400-
WEST CENTRAL INDIANA

CITY           SKY/WX    TMP DP  RH WIND       PRES   REMARKS
GREENCASTLE +  SUNNY     70  64  83 CALM      29.95R
LAFAYETTE      SUNNY     68  64  87 NW6       29.94R
TERRE HAUTE    SUNNY     72  67  84 CALM      29.93S

$$

INZ030>032-037>040-046>048-054>057-064-065-191400-
CENTRAL INDIANA

CITY           SKY/WX    TMP DP  RH WIND       PRES   REMARKS
ANDERSON       SUNNY     70  64  83 MISG      29.95
CP ATTERBURY + SUNNY     70  64  83 CALM      29.95S
COLUMBUS       SUNNY     72  66  83 SW5       29.94F
FRANKFORT +    MOSUNNY   71  65  81 CALM      29.95S
GREENWOOD *+   CLOUDY    71  65  81 CALM      29.96R
INDIANAPOLIS   CLOUDY    70  66  87 SE5       29.93R
-EAGLE CREEK   CLOUDY    71  65  81 CALM      29.93R
KOKOMO +       SUNNY     69  65  86 NW7       29.95R
MARION +       SUNNY     68  64  88 W5        29.95R
MT COMFORT *+  CLOUDY    68  64  88 CALM      29.94F
SHELBYVILLE    CLOUDY    70  65  84 S3        29.94S
ZIONSVILLE +   SUNNY     69  64  84 CALM      29.95S

$$

INZ033-034-041-042-049-050-058-059-191400-
EAST CENTRAL INDIANA

CITY           SKY/WX    TMP DP  RH WIND       PRES   REMARKS
MUNCIE         SUNNY     73  63  70 W6        29.94R

$$

INZ060-061-067>069-081>083-085>088-191400-
SOUTHWEST INDIANA

CITY           SKY/WX    TMP DP  RH WIND       PRES   REMARKS
EVANSVILLE     LGT RAIN  72  68  87 SW5       29.97R
HUNTINGBURG +  CLOUDY    70  68  93 MISG      29.96S
WASHINGTON +   MOSUNNY   74  64  71 MISG      29.94S

$$

INZ062-063-066-070>080-084-089>092-191400-
SOUTH CENTRAL AND SOUTHEAST INDIANA

CITY           SKY/WX    TMP DP  RH WIND       PRES   REMARKS
BEDFORD +      MOSUNNY   72  64  78 CALM      29.95S
BLOOMINGTON    MOSUNNY   72  65  78 SW5       29.95R
MADISON *+     CLOUDY    72  64  78 S5        29.99S
NORTH VERNON + CLOUDY    72  66  83 S3        29.96F
SEYMOUR +      CLOUDY    72  68  88 S3        29.95S

$$





USA.gov is the U.S. government's official web portal to all federal, state and local government web resources and services.